Location: Unspecified
(0.0000°N, 0.0000°E)
Time: 13:49:32
(UTC+00:00)

Explorer 11/Cluster Stage 4 - Pass Details

Date: 02 March 2024
Orbit: 465 x 1219 km, 28.8° (Epoch: 24 April)

Event Time Altitude Azimuth Distance (km) Brightness Sun altitude
Rises 19:27:06 0° 262° (W) 3,124 11.4 -18.6°
Reaches altitude 10° 19:29:34 10° 272° (W) 2,322 10.2 -19.3°
Maximum altitude 19:34:31 32° 334° (NNW) 1,484 8.1 -20.5°
Enters shadow 19:38:38 17° 26° (NNE) 2,252 8.6 -21.5°
